FW3192 Weather Reports


Display with metric or nautical units.
time (UTC)temp
F
wind
direction
speed
MPH
gust
MPH
rain 1hr
in
rain 24hr
in
rain mn
in
humidity
%
barometer
mb
20260902024621 59 239 8.0 13.0 0.00 0.12 0.00 69 1015.4
20260902023104 59 253 6.0 11.0 0.00 0.12 0.00 70 1015.6
20260902021604 59 241 6.0 12.0 0.00 0.12 0.00 67 1015.7
20260902020040 59 263 7.0 13.0 0.00 0.12 0.00 66 1015.8
20260902014541 58 255 8.0 11.0 0.00 0.12 0.00 69 1015.9
20260902013035 59 266 8.0 13.0 0.00 0.12 0.00 69 1016.1
20260902011532 59 249 5.0 13.0 0.00 0.12 0.00 70 1016.3
20260902010028 58 245 4.0 14.0 0.00 0.12 0.00 69 1016.5
20260902004527 58 277 4.0 12.0 0.00 0.12 0.00 70 1016.7
20260902003027 58 294 7.0 11.0 0.00 0.12 0.00 70 1016.8
20260902001525 57 230 6.0 13.0 0.00 0.12 0.00 73 1016.9
20260902000011 57 281 7.0 12.0 0.00 0.12 0.00 75 1016.9
20260901234508 57 259 3.0 13.0 0.00 0.12 0.00 75 1016.9
20260901233011 56 225 7.0 11.0 0.00 0.12 0.00 73 1016.9
20260901231511 56 232 7.0 12.0 0.00 0.12 0.00 75 1017.0
20260901230006 56 259 7.0 12.0 0.00 0.12 0.00 78 1017.0
20260901224505 56 249 7.0 11.0 0.00 0.12 0.00 81 1017.1
20260901223004 56 247 7.0 11.0 0.00 0.12 0.00 78 1017.1
20260901221501 56 247 8.0 12.0 0.00 0.12 0.00 79 1016.9
20260901220046 56 289 5.0 10.0 0.00 0.12 0.00 81 1016.8
20260901214557 56 257 7.0 10.0 0.00 0.12 0.00 82 1016.7
20260901213108 56 281 6.0 10.0 0.00 0.12 0.00 81 1016.5
20260901211542 56 232 6.0 10.0 0.00 0.12 0.00 83 1016.5
20260901210042 56 229 6.0 9.0 0.00 0.12 0.00 83 1016.2
20260901204538 55 259 6.0 9.0 0.00 0.12 0.00 83 1016.1
20260901203101 55 232 5.0 8.0 0.00 0.12 0.00 82 1015.9
20260901201535 55 260 4.0 11.0 0.00 0.12 0.00 88 1015.8
20260901200043 54 248 7.0 10.0 0.00 0.12 0.00 93 1015.7
20260901194541 54 234 7.0 12.0 0.00 0.12 0.00 94 1015.7
20260901193040 55 237 6.0 11.0 0.00 0.12 0.00 95 1015.7
20260901191534 55 235 6.0 9.0 0.00 0.12 0.00 95 1015.7
20260901190052 55 247 3.0 7.0 0.00 0.12 0.00 94 1015.8
20260901184551 55 244 6.0 8.0 0.00 0.12 0.00 94 1015.6
20260901183058 55 228 6.0 10.0 0.00 0.12 0.00 93 1015.7
20260901181550 54 216 0.0 1.0 0.00 0.12 0.00 93 1015.6
20260901180026 54 216 0.0 1.0 0.00 0.12 0.00 94 1015.6
20260901174524 54 216 0.0 0.0 0.00 0.12 0.00 93 1015.5
20260901173022 55 216 0.0 1.0 0.00 0.12 0.00 93 1015.5
20260901171521 55 216 0.0 1.0 0.00 0.12 0.00 93 1015.7
20260901170003 55 216 3.0 4.0 0.00 0.12 0.00 92 1015.8
20260901164502 56 216 3.0 6.0 0.00 0.12 0.00 92 1015.9
20260901163045 55 218 3.0 6.0 0.00 0.12 0.00 92 1015.9
20260901161549 55 219 3.0 4.0 0.00 0.12 0.00 92 1015.9
20260901160042 55 183 1.0 3.0 0.00 0.12 0.00 91 1016.0
20260901154542 56 197 2.0 5.0 0.00 0.12 0.00 92 1015.9
20260901153048 56 216 3.0 7.0 0.00 0.12 0.00 93 1015.8
20260901151541 56 223 0.0 1.0 0.00 0.12 0.00 93 1015.6
20260901150037 56 223 0.0 3.0 0.00 0.12 0.00 93 1015.7
20260901144537 57 237 2.0 3.0 0.00 0.12 0.00 93 1015.7
20260901143018 57 222 2.0 4.0 0.00 0.12 0.00 93 1015.7
20260901141517 58 197 4.0 8.0 0.00 0.12 0.00 92 1015.7
20260901140108 58 249 5.0 8.0 0.00 0.12 0.00 93 1015.8
20260901134600 58 222 6.0 9.0 0.00 0.12 0.00 93 1015.8
20260901133100 56 232 2.0 5.0 0.00 0.12 0.00 94 1016.0
20260901131557 55 302 0.0 2.0 0.00 0.12 0.00 93 1015.9
20260901130057 55 326 1.0 2.0 0.00 0.12 0.00 92 1016.0
20260901124554 55 344 1.0 2.0 0.00 0.12 0.00 91 1016.0
20260901123051 57 276 0.0 1.0 0.00 0.12 0.00 92 1016.0
20260901121550 56 251 1.0 3.0 0.00 0.12 0.00 92 1016.0
20260901120034 56 292 1.0 3.0 0.00 0.12 0.00 91 1016.0
20260901114534 57 294 3.0 4.0 0.00 0.12 0.00 90 1016.0
20260901113029 58 302 1.0 3.0 0.00 0.12 0.00 90 1015.8
20260901111527 58 284 0.0 1.0 0.00 0.12 0.00 89 1015.7
20260901110025 59 282 0.0 2.0 0.00 0.12 0.12 90 1015.7
20260901104530 58 244 1.0 5.0 0.00 0.12 0.12 90 1015.6
20260901103024 58 249 0.0 4.0 0.00 0.12 0.12 90 1015.7
20260901101524 58 244 0.0 6.0 0.00 0.12 0.12 90 1015.5
20260901100010 58 205 5.0 10.0 0.00 0.12 0.12 91 1015.2
20260901094509 57 218 0.0 7.0 0.00 0.12 0.12 91 1014.9
20260901093008 57 2 3.0 5.0 0.00 0.12 0.12 90 1014.4
20260901091509 58 3 3.0 7.0 0.01 0.12 0.12 89 1014.0
20260901090008 58 17 5.0 9.0 0.01 0.12 0.12 89 1013.9
20260901084506 58 344 5.0 10.0 0.01 0.12 0.12 89 1013.9
20260901083013 58 1 9.0 13.0 0.01 0.12 0.12 89 1013.7
20260901081508 58 36 6.0 8.0 0.00 0.11 0.11 89 1014.1
20260901080105 58 38 5.0 7.0 0.02 0.11 0.11 89 1014.2
20260901074554 58 69 0.0 7.0 0.04 0.11 0.11 89 1013.9
20260901073049 59 37 5.0 8.0 0.09 0.11 0.11 88 1013.6
20260901071549 59 64 2.0 14.0 0.11 0.11 0.11 87 1013.5
20260901070048 59 17 4.0 6.0 0.09 0.09 0.09 87 1014.2
20260901064546 59 279 1.0 10.0 0.07 0.07 0.07 86 1014.5
20260901063048 61 244 5.0 17.0 0.02 0.02 0.02 82 1014.9
20260901061543 61 273 7.0 14.0 0.00 0.00 0.00 81 1015.0
20260901060043 64 251 12.0 17.0 0.00 0.00 0.00 74 1014.9
20260901054528 66 247 10.0 16.0 0.00 0.00 0.00 70 1014.7
20260901053027 69 265 9.0 22.0 0.00 0.00 0.00 61 1014.1
20260901051535 68 275 6.0 10.0 0.00 0.00 0.00 64 1013.9
20260901050025 69 298 7.0 11.0 0.00 0.00 0.00 63 1013.8
20260901044527 69 322 5.0 15.0 0.00 0.00 0.00 65 1013.7
20260901043025 70 296 9.0 15.0 0.00 0.00 0.00 62 1013.9
20260901041544 70 310 10.0 17.0 0.00 0.00 0.00 61 1013.9
20260901040020 70 303 11.0 17.0 0.00 0.00 0.00 59 1014.0
20260901034503 69 325 10.0 18.0 0.00 0.00 0.00 61 1014.2
20260901033101 69 325 13.0 19.0 0.00 0.00 0.00 61 1014.2
20260901031602 68 315 14.0 23.0 0.00 0.00 0.00 60 1014.6
20260901030057 69 308 14.0 25.0 0.00 0.00 0.00 61 1015.0